Wind_Speed
8 8 6 2 3 4 4 8 15 21 13 3 10 11 6 4 3 3 8 10 20 12 16 18 15 12 10 8 8 9 11 12 12 13 13 12 12 12 11 11 12 14 15 16 16 17 17 16 14
8 10 4 5 4 2 6 16 20 19 14 6 10 7 7 3 8 15 14 15 11 11 16 17 14 11 10 9 9 9 11 12 12 13 13 13 12 13 13 13 12 14 15 16 16 16 17 15 13
10 13 3 4 4 10 6 11 17 20 30 4 2 4 2 4 13 17 15 16 14 14 16 14 12 11 10 8 7 8 9 11 12 13 13 13 13 12 13 13 13 15 16 16 16 17 16 16 15
11 7 7 2 10 10 15 15 14 16 9 3 3 1 6 10 10 17 20 14 12 14 15 15 13 12 10 9 8 8 9 10 11 13 14 15 14 14 14 14 15 15 17 16 17 16 16 17 16
14 6 4 6 14 8 16 25 31 19 12 8 9 4 2 10 8 17 18 15 14 15 17 16 15 13 11 9 8 8 8 9 11 12 14 15 15 15 16 15 16 17 18 17 18 18 18 17 16
7 6 2 13 14 13 15 29 27 20 25 11 8 7 3 4 15 17 21 20 15 15 16 15 16 14 13 10 9 8 8 10 11 13 14 16 16 17 16 17 17 16 15 16 16 18 18 18 19
6 3 7 9 10 15 18 29 7 11 21 10 10 6 11 5 16 19 22 22 19 18 18 17 18 16 15 12 10 9 9 10 11 12 14 15 15 18 18 21 21 22 15 18 17 20 18 19 22
14 3 8 9 11 18 20 26 29 21 9 10 6 1 4 13 18 20 22 22 22 21 20 18 20 19 16 13 11 9 9 11 12 13 14 16 17 17 19 23 22 21 16 24 21 23 20 21 23
25 7 12 14 17 17 25 19 34 29 18 15 12 10 4 12 16 22 22 23 22 21 22 22 19 20 18 16 14 11 10 12 13 14 15 17 17 16 19 20 20 18 14 17 21 22 21 21 23
7 10 15 9 13 16 25 19 23 25 17 15 8 10 9 14 16 17 18 19 25 23 24 25 23 20 20 18 15 11 11 12 12 14 15 17 16 17 18 17 16 14 12 11 22 24 21 23 25
7 15 13 17 25 28 22 25 25 14 13 18 15 20 17 14 16 18 21 17 22 25 28 27 25 21 20 20 16 11 9 11 12 13 15 17 17 18 19 16 18 20 20 17 18 22 21 23 26
14 20 26 27 33 32 22 28 20 21 18 31 28 25 24 21 21 24 23 23 21 30 32 30 27 23 21 21 18 12 10 10 8 8 14 18 17 18 19 18 21 24 23 19 24 20 23 25 26
15 15 24 26 28 25 28 19 21 23 31 32 35 36 32 28 24 20 23 25 20 26 35 33 30 24 21 24 21 14 13 11 7 9 12 16 16 15 17 19 21 25 23 22 31 25 23 26 27
18 18 18 19 20 19 12 10 17 26 26 34 35 38 40 39 33 27 22 26 26 25 30 37 34 27 23 24 25 19 18 14 14 14 15 16 16 16 18 20 23 27 26 22 27 28 25 22 25
15 9 11 8 14 14 22 18 19 32 33 36 37 40 39 39 39 39 31 34 27 29 31 37 36 31 27 25 27 20 22 20 20 18 17 16 15 17 19 21 24 27 29 25 26 28 25 24 26
7 7 7 5 10 20 14 20 22 36 33 33 38 43 41 44 42 38 38 35 38 36 39 36 41 37 32 26 25 23 29 24 22 21 19 17 15 16 19 21 23 25 25 26 26 27 25 28 28
5 8 11 18 14 16 11 16 12 29 20 16 21 21 20 32 41 39 38 38 39 36 38 40 42 41 36 26 24 25 27 30 27 22 22 21 18 21 22 22 23 25 24 24 24 26 28 29 29
6 7 8 7 7 14 12 10 12 20 24 21 24 33 31 32 27 35 39 38 35 38 40 42 44 43 34 28 28 26 23 22 25 23 22 17 19 22 24 25 23 26 24 26 26 26 26 29 33
16 16 15 12 12 10 15 15 15 18 26 24 29 36 33 37 37 29 21 38 39 39 37 41 48 44 36 32 32 29 27 25 22 20 19 18 21 24 24 26 25 24 26 27 28 25 26 24 41
17 13 8 8 9 12 15 14 11 13 18 21 28 35 34 35 36 32 29 25 33 35 29 42 48 45 38 33 30 28 27 23 17 18 19 20 23 26 24 25 26 27 24 27 29 24 22 29 37
9 6 8 13 13 14 12 21 10 14 18 28 31 39 35 33 33 33 29 28 23 38 35 45 48 43 37 31 25 27 22 17 18 21 21 20 22 24 24 25 25 23 23 26 29 25 28 35 40
11 8 14 14 12 9 3 16 15 17 20 21 20 31 32 33 33 31 28 27 20 29 40 44 43 39 33 29 29 32 29 27 22 17 14 17 20 21 24 23 24 23 22 25 30 29 40 42 44
13 9 8 7 13 9 13 10 13 16 20 17 13 37 11 27 17 21 25 28 21 34 41 40 39 37 31 28 30 31 28 23 19 16 15 17 18 18 22 23 23 26 24 30 31 36 32 40 44
6 5 7 8 7 9 19 5 8 8 8 5 11 21 25 26 11 8 7 7 13 34 42 41 37 33 31 28 30 29 27 25 21 19 16 19 19 21 20 20 20 23 25 27 30 33 34 44 40
4 2 3 3 3 8 5 6 2 22 16 16 15 21 23 29 24 19 19 13 1 20 45 43 41 36 32 30 31 28 22 22 17 18 19 20 22 22 21 19 20 22 24 29 32 37 46 45 43
7 8 4 4 3 10 17 4 2 6 21 22 16 15 23 30 28 24 23 20 8 21 42 43 38 36 33 30 31 26 21 21 18 15 18 17 18 19 19 18 20 22 23 33 32 29 43 44 40
4 6 14 11 10 8 6 7 10 9 10 13 21 24 27 31 30 27 26 25 15 15 43 43 38 33 33 28 25 24 22 24 18 19 17 11 13 15 18 17 15 14 11 22 34 29 29 44 43
8 4 3 2 4 5 5 2 2 11 7 9 11 16 22 27 28 25 25 25 19 7 19 33 32 29 29 25 26 25 24 21 18 15 15 12 13 15 15 13 12 12 14 16 20 31 35 39 40
5 6 4 4 5 3 4 2 3 7 8 5 8 16 21 22 23 23 23 21 21 15 12 8 16 24 25 27 27 24 20 20 20 17 15 12 13 12 12 12 13 14 16 15 21 26 29 42 40
17 10 5 7 6 5 0 1 5 10 7 6 11 12 18 20 21 22 21 19 19 16 9 13 21 19 28 27 22 21 24 21 18 16 16 14 11 10 10 11 13 14 14 16 18 30 29 32 35
Wind_Direction
239 219 202 261 51 77 276 255 243 277 286 318 87 85 128 179 52 203 143 173 186 169 159 162 169 170 173 183 188 189 188 188 187 182 182 186 188 191 191 189 186 187 188 186 184 183 184 181 181
224 187 200 277 135 170 249 234 250 255 307 90 85 69 60 315 110 142 148 168 174 175 164 158 162 166 169 174 183 191 193 195 192 189 191 194 199 203 201 197 193 190 190 191 189 187 187 186 185
204 166 242 166 197 213 228 241 259 278 294 134 106 119 133 134 106 155 173 170 170 160 155 154 156 159 167 176 190 203 210 206 201 197 197 203 206 212 213 209 204 198 195 193 188 188 186 184 175
183 192 259 236 241 242 233 269 280 285 295 160 117 356 140 177 128 151 163 172 161 157 158 158 162 165 167 170 187 199 210 213 209 203 201 209 211 214 217 216 214 208 201 194 190 189 177 175 170
181 240 225 221 246 268 270 263 272 278 272 187 180 217 29 158 181 152 156 173 180 171 167 169 169 170 175 181 192 202 213 218 214 209 208 213 213 217 220 220 223 218 209 203 199 185 172 173 164
191 238 239 233 252 259 255 260 269 269 274 233 163 153 153 258 182 168 164 174 184 188 180 183 179 181 184 190 198 208 216 222 219 213 212 216 215 221 219 221 222 216 210 208 204 188 173 175 163
216 247 236 264 275 280 274 276 251 262 272 235 217 158 189 198 187 168 174 183 191 202 201 196 193 191 195 199 207 216 223 227 224 223 221 210 212 217 215 216 215 210 194 200 205 194 182 175 164
231 256 258 257 259 263 275 297 300 302 281 291 305 64 244 157 146 168 177 189 206 212 220 207 201 200 204 205 214 222 232 231 223 222 214 205 216 217 218 220 220 222 225 229 232 200 186 173 169
234 242 246 243 251 272 285 289 299 321 289 253 271 267 219 178 169 152 171 188 202 219 226 224 211 205 207 210 218 224 231 231 223 219 216 218 221 217 222 221 222 230 222 218 220 196 182 172 175
206 239 241 251 265 275 277 292 318 314 319 316 284 257 177 188 185 194 185 187 204 220 233 235 226 211 209 211 219 222 231 229 223 222 221 226 225 221 230 230 224 204 208 227 215 193 174 178 180
258 250 265 265 273 275 284 293 298 322 315 306 320 322 274 207 194 192 215 228 220 222 234 241 244 231 213 214 218 219 222 217 216 220 223 227 227 225 230 224 209 209 211 222 208 179 172 185 184
247 243 244 254 257 262 273 283 290 290 289 295 307 304 300 299 211 198 206 212 225 230 229 235 243 233 223 216 221 224 211 195 199 210 222 227 230 231 229 223 213 206 209 214 186 181 174 187 187
267 269 269 267 258 265 262 269 280 276 285 296 289 291 291 287 279 239 233 223 232 234 227 228 235 235 226 215 218 218 205 207 207 220 234 235 231 233 225 219 210 211 211 206 198 196 193 189 190
254 269 272 286 303 304 300 294 301 287 290 281 281 281 279 276 272 268 233 224 229 233 234 226 224 234 223 217 216 200 206 201 209 220 231 231 230 231 224 219 213 213 214 216 206 202 197 194 201
296 313 302 288 296 291 291 288 274 280 276 274 271 267 265 264 266 262 254 242 235 238 241 223 220 224 224 223 218 196 203 199 209 217 225 228 223 223 225 216 211 212 217 227 211 198 204 211 210
342 307 287 281 267 270 254 261 264 259 256 255 256 256 254 253 250 255 251 243 243 243 243 231 211 217 229 225 219 207 202 210 211 214 222 222 217 216 219 224 221 219 220 217 206 206 209 207 203
245 264 261 280 265 268 252 271 308 247 260 283 297 295 294 257 247 244 243 241 238 236 240 224 210 215 223 220 222 212 203 210 218 218 223 228 219 216 217 223 223 222 220 211 213 209 206 209 204
238 243 263 266 292 314 305 296 308 307 305 297 296 294 289 289 279 248 240 237 240 230 237 221 209 213 218 221 223 214 213 207 208 214 224 218 217 218 219 221 221 223 217 211 212 210 216 216 209
252 262 271 281 285 298 295 292 292 292 284 272 273 275 274 273 272 273 263 236 234 230 237 217 201 208 213 221 221 211 213 208 210 212 216 215 215 225 219 222 217 214 216 218 221 213 218 225 206
239 253 275 283 290 288 288 282 267 276 279 266 257 259 257 252 260 264 262 265 239 236 214 212 199 205 210 224 219 216 215 215 210 213 210 211 218 222 221 222 220 221 219 209 204 217 224 194 169
269 272 279 268 274 268 284 277 284 279 283 285 276 265 250 242 246 251 253 255 254 231 210 205 197 204 208 215 211 213 213 210 201 209 218 217 212 215 218 223 224 222 214 212 213 210 189 176 176
261 244 267 289 298 280 352 296 279 276 283 279 332 302 239 238 236 242 248 255 261 209 207 193 195 201 209 214 211 216 208 201 208 215 210 206 209 213 218 218 222 220 218 223 220 207 194 182 179
278 284 291 306 295 308 283 271 279 275 275 283 28 4 270 220 227 233 250 257 244 196 186 193 197 200 208 218 213 211 210 211 211 213 200 203 207 208 215 222 226 226 227 218 222 209 203 193 185
322 315 321 287 277 275 271 249 302 306 290 36 59 359 13 31 51 38 16 30 212 199 190 195 199 206 212 212 214 213 211 205 204 198 191 198 204 209 212 214 223 222 222 224 223 219 210 191 191
264 6 308 306 225 245 215 277 12 2 32 29 28 4 359 20 22 19 9 347 341 197 189 194 197 202 204 207 210 213 213 204 198 195 197 202 210 210 218 220 221 228 233 235 222 210 194 195 193
206 177 191 268 285 302 308 270 254 31 356 15 7 2 5 15 10 14 9 358 317 216 200 192 198 198 204 201 206 205 195 195 200 196 204 218 218 215 211 218 230 235 231 227 212 213 204 195 194
237 229 222 252 273 281 255 245 87 34 337 357 357 2 10 6 6 10 12 19 28 195 196 200 199 204 200 193 197 195 191 195 205 197 206 214 207 211 218 223 233 209 229 221 215 205 213 203 194
193 231 354 1 294 265 278 68 29 334 36 3 342 3 3 7 5 10 18 28 46 110 192 196 197 195 195 187 191 193 194 202 197 193 202 204 198 213 209 210 211 188 198 213 206 211 207 193 197
257 243 244 196 167 244 300 307 219 277 320 360 26 11 3 8 4 6 20 33 45 69 155 204 206 200 179 181 192 195 191 181 188 192 201 197 186 185 199 210 205 200 213 217 221 224 207 203 199
287 284 284 233 235 228 260 304 231 285 272 94 64 22 6 12 7 11 14 32 44 52 93 138 146 163 165 175 183 187 181 177 190 192 195 199 205 210 209 209 210 207 192 197 190 212 199 199 199
Height
1499 1501 1503 1503 1516 1514 1518 1503 1481 1470 1464 1457 1453 1454 1461 1463 1467 1482 1472 1473 1474 1475 1476 1478 1482 1484 1487 1489 1491 1494 1497 1499 1502 1505 1507 1510 1512 1515 1517 1519 1519 1521 1523 1525 1526 1528 1531 1534 1535
1497 1500 1503 1502 1515 1522 1512 1480 1476 1465 1464 1457 1451 1452 1455 1460 1465 1469 1470 1472 1474 1476 1477 1478 1481 1484 1486 1488 1490 1493 1495 1498 1501 1503 1506 1509 1512 1514 1516 1516 1518 1520 1521 1524 1526 1528 1530 1533 1535
1496 1499 1501 1502 1508 1507 1500 1473 1466 1462 1462 1457 1456 1455 1454 1457 1462 1466 1468 1471 1474 1476 1476 1478 1482 1484 1486 1488 1490 1491 1494 1497 1499 1502 1505 1508 1510 1513 1515 1516 1517 1518 1520 1522 1525 1527 1529 1533 1536
1495 1499 1499 1500 1498 1482 1477 1464 1463 1464 1462 1456 1455 1456 1456 1456 1459 1464 1468 1470 1472 1475 1476 1478 1481 1483 1485 1487 1489 1490 1492 1495 1497 1500 1502 1506 1509 1511 1512 1515 1516 1518 1520 1523 1524 1525 1529 1532 1535
1495 1495 1500 1496 1486 1479 1471 1467 1461 1458 1458 1456 1454 1456 1457 1456 1457 1462 1464 1466 1470 1474 1476 1476 1478 1481 1484 1485 1487 1489 1491 1494 1496 1498 1501 1503 1507 1509 1510 1513 1516 1518 1519 1522 1524 1524 1526 1531 1535
1492 1490 1497 1493 1483 1474 1467 1461 1460 1457 1453 1451 1452 1453 1456 1458 1457 1460 1462 1465 1468 1471 1474 1476 1476 1479 1482 1484 1486 1487 1489 1491 1494 1496 1499 1501 1504 1506 1509 1511 1515 1518 1520 1522 1522 1524 1525 1530 1533
1487 1487 1487 1486 1480 1471 1463 1459 1459 1455 1451 1446 1447 1451 1453 1453 1455 1458 1461 1462 1467 1471 1472 1474 1475 1477 1480 1482 1484 1485 1487 1489 1491 1493 1496 1498 1500 1503 1507 1508 1510 1513 1517 1517 1519 1525 1525 1530 1533
1483 1483 1482 1481 1480 1471 1460 1455 1454 1454 1447 1445 1446 1449 1453 1454 1454 1456 1458 1461 1463 1468 1471 1472 1473 1475 1477 1480 1482 1483 1484 1487 1488 1490 1493 1495 1497 1500 1502 1506 1509 1512 1514 1518 1516 1522 1525 1528 1532
1483 1484 1477 1476 1472 1465 1462 1457 1450 1451 1445 1442 1442 1445 1450 1452 1454 1456 1458 1460 1462 1464 1469 1470 1472 1472 1474 1477 1479 1481 1482 1484 1485 1488 1490 1492 1495 1497 1499 1503 1507 1509 1513 1512 1514 1513 1523 1528 1531
1475 1473 1470 1468 1466 1463 1459 1457 1457 1453 1448 1446 1444 1446 1446 1448 1451 1454 1457 1459 1459 1462 1464 1467 1469 1469 1471 1473 1476 1478 1479 1482 1483 1485 1487 1489 1492 1494 1496 1500 1503 1506 1509 1510 1514 1506 1521 1525 1530
1469 1467 1467 1465 1463 1459 1457 1452 1452 1453 1450 1449 1448 1446 1446 1445 1447 1450 1452 1454 1455 1458 1459 1464 1466 1468 1468 1469 1472 1475 1476 1479 1481 1482 1485 1486 1489 1491 1494 1498 1501 1503 1505 1508 1510 1512 1519 1524 1528
1470 1462 1462 1461 1460 1456 1453 1449 1445 1447 1448 1447 1444 1444 1445 1443 1442 1444 1447 1450 1453 1452 1454 1459 1462 1464 1465 1466 1468 1471 1473 1476 1478 1480 1481 1482 1485 1488 1491 1494 1498 1500 1502 1506 1509 1511 1515 1521 1526
1463 1460 1457 1454 1453 1450 1448 1443 1443 1440 1441 1444 1441 1438 1439 1442 1442 1441 1441 1444 1448 1448 1448 1452 1455 1459 1462 1463 1465 1468 1470 1473 1476 1477 1478 1479 1482 1484 1488 1491 1495 1497 1500 1503 1507 1512 1515 1518 1523
1457 1455 1452 1448 1448 1446 1444 1439 1442 1436 1440 1439 1437 1435 1434 1434 1436 1438 1438 1439 1443 1444 1442 1446 1449 1453 1457 1459 1461 1465 1466 1470 1472 1474 1475 1477 1480 1482 1486 1488 1491 1495 1497 1501 1505 1509 1512 1516 1521
1453 1454 1449 1445 1444 1441 1441 1437 1437 1434 1436 1433 1432 1431 1430 1429 1428 1429 1432 1433 1437 1438 1439 1439 1445 1448 1451 1454 1457 1461 1463 1466 1468 1470 1472 1475 1476 1479 1483 1486 1488 1492 1495 1499 1503 1507 1510 1514 1518
1457 1456 1460 1447 1443 1438 1441 1442 1429 1428 1427 1424 1422 1421 1420 1420 1419 1421 1424 1426 1429 1432 1433 1432 1437 1442 1444 1449 1454 1458 1461 1462 1465 1466 1469 1471 1474 1477 1480 1483 1485 1490 1492 1495 1499 1503 1507 1510 1513
1461 1466 1461 1445 1438 1435 1436 1433 1423 1418 1419 1418 1416 1415 1413 1412 1411 1413 1415 1418 1421 1423 1425 1425 1430 1435 1439 1445 1449 1454 1457 1460 1462 1464 1467 1468 1470 1474 1477 1480 1482 1486 1488 1493 1497 1500 1504 1506 1509
1464 1461 1453 1451 1440 1435 1435 1429 1420 1417 1414 1412 1411 1407 1406 1404 1404 1404 1406 1409 1412 1415 1417 1420 1422 1428 1436 1441 1443 1449 1452 1455 1458 1460 1463 1465 1468 1471 1474 1477 1480 1482 1486 1490 1493 1496 1500 1504 1502
1452 1450 1448 1439 1435 1435 1431 1426 1418 1413 1412 1408 1405 1401 1399 1398 1397 1399 1400 1402 1403 1407 1407 1414 1416 1421 1429 1434 1437 1443 1446 1450 1453 1456 1459 1460 1464 1468 1471 1472 1476 1479 1483 1485 1490 1493 1496 1498 1496
1446 1447 1445 1436 1432 1432 1426 1422 1416 1411 1406 1402 1398 1393 1393 1392 1391 1392 1392 1394 1396 1398 1401 1406 1411 1415 1422 1427 1432 1438 1442 1446 1449 1452 1455 1456 1460 1464 1466 1469 1472 1474 1478 1481 1486 1488 1490 1493 1497
1439 1442 1440 1438 1430 1425 1423 1415 1411 1402 1397 1393 1387 1380 1380 1382 1384 1385 1387 1389 1388 1390 1394 1399 1406 1411 1417 1422 1429 1434 1440 1444 1445 1446 1448 1451 1455 1459 1462 1465 1468 1470 1474 1477 1481 1484 1487 1489 1496
1440 1433 1430 1430 1434 1437 1422 1424 1409 1401 1394 1383 1381 1370 1369 1372 1376 1380 1382 1383 1384 1383 1387 1394 1401 1408 1413 1418 1424 1427 1431 1434 1438 1441 1444 1448 1451 1455 1458 1461 1464 1466 1470 1474 1477 1480 1483 1486 1492
1432 1429 1430 1430 1433 1432 1423 1427 1403 1399 1392 1384 1383 1377 1363 1364 1373 1377 1378 1377 1379 1379 1384 1390 1397 1402 1407 1412 1418 1424 1430 1434 1436 1439 1441 1445 1448 1451 1454 1457 1460 1462 1465 1468 1472 1473 1479 1485 1487
1427 1428 1429 1430 1434 1439 1416 1425 1408 1396 1384 1379 1376 1389 1381 1372 1372 1374 1376 1375 1375 1375 1379 1385 1391 1397 1402 1407 1413 1421 1428 1432 1434 1436 1438 1442 1446 1448 1451 1454 1456 1459 1461 1463 1466 1469 1472 1477 1485
1428 1436 1454 1447 1444 1433 1405 1414 1408 1405 1398 1393 1389 1388 1388 1378 1375 1373 1370 1371 1371 1375 1373 1379 1387 1392 1398 1404 1409 1418 1425 1429 1431 1433 1436 1440 1442 1444 1447 1450 1452 1454 1456 1457 1459 1463 1466 1473 1480
1427 1435 1452 1444 1440 1426 1407 1411 1405 1412 1408 1400 1399 1396 1388 1380 1377 1375 1373 1369 1368 1370 1376 1375 1384 1389 1394 1401 1410 1417 1422 1426 1429 1431 1435 1437 1438 1441 1444 1447 1448 1450 1451 1450 1453 1459 1464 1470 1477
1422 1431 1422 1430 1427 1429 1409 1396 1404 1408 1406 1401 1395 1393 1389 1384 1380 1377 1374 1369 1364 1366 1371 1376 1380 1387 1394 1401 1409 1415 1420 1425 1427 1430 1433 1435 1436 1439 1442 1444 1445 1445 1445 1447 1450 1457 1462 1468 1474
1414 1415 1439 1439 1440 1428 1400 1406 1413 1413 1404 1405 1402 1400 1397 1392 1385 1381 1378 1377 1372 1371 1375 1379 1378 1384 1390 1400 1408 1412 1418 1423 1426 1428 1431 1432 1434 1437 1440 1441 1442 1443 1445 1448 1450 1454 1458 1465 1472
1419 1418 1419 1422 1428 1432 1422 1413 1417 1411 1404 1404 1404 1404 1401 1399 1394 1388 1384 1382 1380 1378 1375 1380 1387 1386 1391 1398 1405 1409 1416 1420 1425 1426 1429 1430 1432 1435 1438 1440 1441 1442 1444 1445 1447 1450 1456 1462 1468
1420 1418 1419 1427 1423 1420 1416 1415 1412 1406 1405 1407 1409 1410 1407 1404 1399 1392 1389 1387 1384 1385 1385 1386 1388 1389 1393 1398 1405 1409 1414 1418 1423 1425 1427 1429 1431 1434 1436 1438 1439 1441 1443 1445 1447 1449 1453 1459 1467